Tabellarische Ansicht des 9.6.2016


Die einzelnen Werte des Tages

Uhrzeit Temperatur Luftdruck Luftfeuchte Wind Hi-Wind Taupunkt THW Index Wind Chill Heat Index Solar- strahlung Regen

00:00

13.6 C

1016.1 hpa

85 %

6.4 km/h aus 118

14.5 km/h aus W

11.1 C

13.4 C

13.5 C

13.5 C

0 W/m

0.00 mm

00:05

13.5 C

1016.1 hpa

85 %

8.0 km/h aus 115

16.1 km/h aus WNW

11.0 C

13.1 C

13.1 C

13.4 C

0 W/m

0.00 mm

00:10

13.4 C

1016.1 hpa

85 %

6.4 km/h aus 117

16.1 km/h aus NW

10.9 C

13.2 C

13.3 C

13.3 C

0 W/m

0.00 mm

00:15

13.3 C

1016.2 hpa

85 %

6.4 km/h aus 115

14.5 km/h aus WNW

10.9 C

13.2 C

13.2 C

13.3 C

0 W/m

0.00 mm

00:20

13.3 C

1016.2 hpa

86 %

6.4 km/h aus 115

12.9 km/h aus WNW

11.0 C

13.1 C

13.2 C

13.2 C

0 W/m

0.00 mm

00:25

13.2 C

1016.2 hpa

86 %

4.8 km/h aus 117

11.3 km/h aus WNW

10.9 C

13.2 C

13.2 C

13.2 C

0 W/m

0.00 mm

00:30

13.2 C

1016.3 hpa

86 %

4.8 km/h aus 117

11.3 km/h aus W

10.9 C

13.1 C

13.2 C

13.1 C

0 W/m

0.00 mm

00:35

13.1 C

1016.3 hpa

86 %

4.8 km/h aus 116

9.7 km/h aus W

10.8 C

13.1 C

13.1 C

13.1 C

0 W/m

0.00 mm

00:40

13.1 C

1016.3 hpa

87 %

6.4 km/h aus 116

11.3 km/h aus W

11.0 C

12.9 C

12.9 C

13.1 C

0 W/m

0.00 mm

00:45

13.1 C

1016.4 hpa

87 %

4.8 km/h aus 114

14.5 km/h aus WNW

11.0 C

13.1 C

13.1 C

13.1 C

0 W/m

0.00 mm

00:50

13.1 C

1016.4 hpa

87 %

4.8 km/h aus 116

11.3 km/h aus W

11.0 C

13.1 C

13.1 C

13.1 C

0 W/m

0.00 mm

00:55

13.1 C

1016.4 hpa

87 %

4.8 km/h aus 117

9.7 km/h aus NW

10.9 C

13.1 C

13.1 C

13.1 C

0 W/m

0.00 mm

01:00

13.0 C

1016.4 hpa

87 %

4.8 km/h aus 116

12.9 km/h aus W

10.9 C

13.0 C

13.0 C

13.0 C

0 W/m

0.00 mm

01:05

12.9 C

1016.4 hpa

86 %

4.8 km/h aus 114

9.7 km/h aus WNW

10.7 C

12.9 C

12.9 C

12.9 C

0 W/m

0.00 mm

01:10

12.9 C

1016.4 hpa

87 %

3.2 km/h aus 114

9.7 km/h aus W

10.8 C

12.9 C

12.9 C

12.9 C

0 W/m

0.00 mm

01:15

12.9 C

1016.3 hpa

87 %

4.8 km/h aus 117

11.3 km/h aus WNW

10.8 C

12.9 C

12.9 C

12.9 C

0 W/m

0.00 mm

01:20

12.8 C

1016.3 hpa

87 %

3.2 km/h aus 117

11.3 km/h aus WNW

10.7 C

12.8 C

12.8 C

12.8 C

0 W/m

0.00 mm

01:25

12.8 C

1016.3 hpa

87 %

3.2 km/h aus 116

8.0 km/h aus WNW

10.7 C

12.8 C

12.8 C

12.8 C

0 W/m

0.00 mm

01:30

12.8 C

1016.3 hpa

87 %

3.2 km/h aus 117

8.0 km/h aus WNW

10.7 C

12.8 C

12.8 C

12.8 C

0 W/m

0.00 mm

01:35

12.8 C

1016.3 hpa

87 %

1.6 km/h aus 113

8.0 km/h aus WNW

10.7 C

12.8 C

12.8 C

12.8 C

0 W/m

0.00 mm

01:40

12.8 C

1016.3 hpa

87 %

3.2 km/h aus 116

9.7 km/h aus WNW

10.7 C

12.8 C

12.8 C

12.8 C

0 W/m

0.00 mm

01:45

12.8 C

1016.3 hpa

87 %

1.6 km/h aus 116

6.4 km/h aus WNW

10.7 C

12.8 C

12.8 C

12.8 C

0 W/m

0.00 mm

01:50

12.8 C

1016.3 hpa

87 %

3.2 km/h aus 117

9.7 km/h aus W

10.7 C

12.8 C

12.8 C

12.8 C

0 W/m

0.00 mm

01:55

12.8 C

1016.3 hpa

87 %

1.6 km/h aus 116

4.8 km/h aus WNW

10.7 C

12.8 C

12.8 C

12.8 C

0 W/m

0.00 mm

02:00

12.8 C

1016.2 hpa

87 %

3.2 km/h aus 115

11.3 km/h aus WNW

10.7 C

12.8 C

12.8 C

12.8 C

0 W/m

0.00 mm

02:05

12.7 C

1016.2 hpa

87 %

1.6 km/h aus 114

11.3 km/h aus WNW

10.6 C

12.7 C

12.7 C

12.7 C

0 W/m

0.00 mm

02:10

12.7 C

1016.2 hpa

86 %

4.8 km/h aus 117

9.7 km/h aus WSW

10.4 C

12.7 C

12.7 C

12.7 C

0 W/m

0.00 mm

02:15

12.7 C

1016.1 hpa

86 %

1.6 km/h aus 117

8.0 km/h aus W

10.4 C

12.7 C

12.7 C

12.7 C

0 W/m

0.00 mm

02:20

12.7 C

1016.1 hpa

86 %

1.6 km/h aus 117

8.0 km/h aus WNW

10.4 C

12.7 C

12.7 C

12.7 C

0 W/m

0.00 mm

02:25

12.7 C

1016.1 hpa

86 %

1.6 km/h aus 114

6.4 km/h aus W

10.4 C

12.7 C

12.7 C

12.7 C

0 W/m

0.00 mm

02:30

12.7 C

1015.9 hpa

86 %

3.2 km/h aus 115

8.0 km/h aus W

10.4 C

12.7 C

12.7 C

12.7 C

0 W/m

0.00 mm

02:35

12.7 C

1015.9 hpa

86 %

6.4 km/h aus 118

9.7 km/h aus W

10.4 C

12.4 C

12.5 C

12.7 C

0 W/m

0.00 mm

02:40

12.7 C

1015.9 hpa

85 %

6.4 km/h aus 117

11.3 km/h aus W

10.2 C

12.4 C

12.4 C

12.6 C

0 W/m

0.00 mm

02:45

12.7 C

1015.9 hpa

85 %

6.4 km/h aus 117

11.3 km/h aus WNW

10.2 C

12.4 C

12.4 C

12.6 C

0 W/m

0.00 mm

02:50

12.7 C

1015.9 hpa

85 %

3.2 km/h aus 116

9.7 km/h aus WNW

10.2 C

12.6 C

12.7 C

12.6 C

0 W/m

0.00 mm

02:55

12.7 C

1015.9 hpa

85 %

8.0 km/h aus 114

14.5 km/h aus W

10.2 C

12.1 C

12.2 C

12.6 C

0 W/m

0.00 mm

03:00

12.7 C

1015.9 hpa

85 %

6.4 km/h aus 117

11.3 km/h aus W

10.2 C

12.4 C

12.4 C

12.6 C

0 W/m

0.00 mm

03:05

12.7 C

1015.9 hpa

85 %

6.4 km/h aus 117

11.3 km/h aus W

10.2 C

12.4 C

12.4 C

12.6 C

0 W/m

0.00 mm

03:10

12.7 C

1015.9 hpa

85 %

6.4 km/h aus 116

16.1 km/h aus WNW

10.2 C

12.4 C

12.4 C

12.6 C

0 W/m

0.00 mm

03:15

12.7 C

1015.9 hpa

85 %

4.8 km/h aus 117

11.3 km/h aus WNW

10.2 C

12.6 C

12.7 C

12.6 C

0 W/m

0.00 mm

03:20

12.7 C

1015.9 hpa

85 %

4.8 km/h aus 114

11.3 km/h aus WSW

10.2 C

12.6 C

12.7 C

12.6 C

0 W/m

0.00 mm

03:25

12.7 C

1015.9 hpa

85 %

6.4 km/h aus 114

14.5 km/h aus WSW

10.2 C

12.4 C

12.4 C

12.6 C

0 W/m

0.00 mm

03:30

12.6 C

1015.9 hpa

84 %

6.4 km/h aus 117

9.7 km/h aus WSW

10.0 C

12.3 C

12.4 C

12.6 C

0 W/m

0.00 mm

03:35

12.6 C

1015.9 hpa

84 %

4.8 km/h aus 117

9.7 km/h aus W

10.0 C

12.6 C

12.6 C

12.6 C

0 W/m

0.00 mm

03:40

12.6 C

1015.9 hpa

84 %

4.8 km/h aus 118

9.7 km/h aus WNW

10.0 C

12.6 C

12.6 C

12.6 C

0 W/m

0.00 mm

03:45

12.6 C

1015.9 hpa

84 %

6.4 km/h aus 114

12.9 km/h aus W

10.0 C

12.3 C

12.4 C

12.6 C

0 W/m

0.00 mm

03:50

12.6 C

1015.9 hpa

84 %

8.0 km/h aus 116

12.9 km/h aus W

10.0 C

12.0 C

12.1 C

12.6 C

0 W/m

0.00 mm

03:55

12.6 C

1015.9 hpa

84 %

6.4 km/h aus 116

11.3 km/h aus W

9.9 C

12.3 C

12.3 C

12.5 C

0 W/m

0.00 mm

04:00

12.6 C

1015.9 hpa

84 %

3.2 km/h aus 117

9.7 km/h aus NW

9.9 C

12.5 C

12.6 C

12.5 C

0 W/m

0.00 mm

04:05

12.6 C

1015.9 hpa

84 %

4.8 km/h aus 116

11.3 km/h aus W

10.0 C

12.6 C

12.6 C

12.6 C

0 W/m

0.00 mm

04:10

12.6 C

1015.9 hpa

84 %

4.8 km/h aus 115

11.3 km/h aus W

10.0 C

12.6 C

12.6 C

12.6 C

0 W/m

0.00 mm

04:15

12.6 C

1015.9 hpa

84 %

4.8 km/h aus 115

9.7 km/h aus WNW

10.0 C

12.6 C

12.6 C

12.6 C

0 W/m

0.00 mm

04:20

12.6 C

1015.9 hpa

84 %

6.4 km/h aus 117

16.1 km/h aus WNW

10.0 C

12.3 C

12.4 C

12.6 C

0 W/m

0.00 mm

04:25

12.6 C

1015.9 hpa

84 %

8.0 km/h aus 116

14.5 km/h aus WSW

10.0 C

12.0 C

12.1 C

12.6 C

0 W/m

0.00 mm

04:30

12.6 C

1015.8 hpa

84 %

8.0 km/h aus 117

14.5 km/h aus W

9.9 C

11.9 C

12.0 C

12.5 C

0 W/m

0.00 mm

04:35

12.6 C

1015.8 hpa

84 %

6.4 km/h aus 116

14.5 km/h aus W

9.9 C

12.3 C

12.3 C

12.5 C

0 W/m

0.00 mm

04:40

12.6 C

1015.8 hpa

84 %

4.8 km/h aus 115

16.1 km/h aus W

9.9 C

12.5 C

12.6 C

12.5 C

0 W/m

0.00 mm

04:45

12.6 C

1015.9 hpa

84 %

4.8 km/h aus 117

9.7 km/h aus W

9.9 C

12.5 C

12.6 C

12.5 C

0 W/m

0.00 mm

04:50

12.6 C

1015.9 hpa

84 %

6.4 km/h aus 117

11.3 km/h aus WSW

9.9 C

12.3 C

12.3 C

12.5 C

0 W/m

0.00 mm

04:55

12.6 C

1015.9 hpa

84 %

4.8 km/h aus 117

11.3 km/h aus WSW

9.9 C

12.5 C

12.6 C

12.5 C

0 W/m

0.00 mm

05:00

12.6 C

1015.9 hpa

84 %

4.8 km/h aus 116

12.9 km/h aus WNW

9.9 C

12.5 C

12.6 C

12.5 C

0 W/m

0.00 mm

05:05

12.6 C

1015.9 hpa

84 %

4.8 km/h aus 115

11.3 km/h aus WNW

10.0 C

12.6 C

12.6 C

12.6 C

0 W/m

0.00 mm

05:10

12.6 C

1015.9 hpa

84 %

4.8 km/h aus 114

14.5 km/h aus WNW

10.0 C

12.6 C

12.6 C

12.6 C

0 W/m

0.00 mm

05:15

12.6 C

1015.9 hpa

85 %

9.7 km/h aus 117

17.7 km/h aus NW

10.1 C

11.7 C

11.7 C

12.5 C

0 W/m

0.00 mm

05:20

12.6 C

1015.9 hpa

85 %

4.8 km/h aus 116

12.9 km/h aus N

10.1 C

12.5 C

12.6 C

12.5 C

0 W/m

0.00 mm

05:25

12.6 C

1015.9 hpa

85 %

8.0 km/h aus 116

16.1 km/h aus N

10.1 C

11.9 C

12.0 C

12.5 C

3 W/m

0.00 mm

05:30

12.5 C

1015.9 hpa

86 %

3.2 km/h aus 115

14.5 km/h aus N

10.2 C

12.4 C

12.5 C

12.4 C

5 W/m

0.00 mm

05:35

12.5 C

1015.9 hpa

86 %

3.2 km/h aus 115

12.9 km/h aus W

10.2 C

12.4 C

12.5 C

12.4 C

5 W/m

0.00 mm

05:40

12.5 C

1015.9 hpa

86 %

4.8 km/h aus 117

11.3 km/h aus WNW

10.2 C

12.4 C

12.5 C

12.4 C

7 W/m

0.00 mm

05:45

12.4 C

1016.0 hpa

86 %

3.2 km/h aus 118

6.4 km/h aus W

10.2 C

12.4 C

12.4 C

12.4 C

7 W/m

0.00 mm

05:50

12.4 C

1016.0 hpa

86 %

1.6 km/h aus 117

8.0 km/h aus W

10.2 C

12.4 C

12.4 C

12.4 C

7 W/m

0.00 mm

05:55

12.4 C

1016.0 hpa

87 %

1.6 km/h aus 116

6.4 km/h aus W

10.3 C

12.4 C

12.4 C

12.4 C

9 W/m

0.00 mm

06:00

12.4 C

1016.0 hpa

87 %

1.6 km/h aus 114

4.8 km/h aus W

10.3 C

12.4 C

12.4 C

12.4 C

11 W/m

0.00 mm

06:05

12.4 C

1016.0 hpa

87 %

1.6 km/h aus 116

14.5 km/h aus W

10.3 C

12.4 C

12.4 C

12.4 C

12 W/m

0.00 mm

06:10

12.4 C

1016.0 hpa

88 %

8.0 km/h aus 117

16.1 km/h aus W

10.5 C

11.8 C

11.8 C

12.4 C

13 W/m

0.00 mm

06:15

12.3 C

1016.0 hpa

87 %

3.2 km/h aus 117

14.5 km/h aus W

10.2 C

12.3 C

12.3 C

12.3 C

18 W/m

0.00 mm

06:20

12.3 C

1016.0 hpa

88 %

1.6 km/h aus 117

11.3 km/h aus W

10.4 C

12.3 C

12.3 C

12.3 C

19 W/m

0.00 mm

06:25

12.3 C

1016.0 hpa

88 %

3.2 km/h aus 113

9.7 km/h aus W

10.4 C

12.3 C

12.3 C

12.3 C

21 W/m

0.00 mm

06:30

12.3 C

1016.0 hpa

88 %

1.6 km/h aus 116

6.4 km/h aus WSW

10.3 C

12.3 C

12.3 C

12.3 C

23 W/m

0.00 mm

06:35

12.3 C

1016.0 hpa

88 %

1.6 km/h aus 117

8.0 km/h aus WSW

10.3 C

12.3 C

12.3 C

12.3 C

21 W/m

0.00 mm

06:40

12.3 C

1016.0 hpa

88 %

3.2 km/h aus 116

11.3 km/h aus SW

10.3 C

12.3 C

12.3 C

12.3 C

20 W/m

0.00 mm

06:45

12.3 C

1016.0 hpa

88 %

6.4 km/h aus 117

14.5 km/h aus W

10.3 C

12.0 C

12.0 C

12.3 C

24 W/m

0.00 mm

06:50

12.2 C

1016.0 hpa

88 %

6.4 km/h aus 116

17.7 km/h aus WSW

10.3 C

11.9 C

11.9 C

12.2 C

26 W/m

0.00 mm

06:55

12.2 C

1016.0 hpa

88 %

4.8 km/h aus 114

19.3 km/h aus WSW

10.3 C

12.2 C

12.2 C

12.2 C

40 W/m

0.00 mm

07:00

12.3 C

1015.9 hpa

89 %

8.0 km/h aus 117

19.3 km/h aus W

10.5 C

11.7 C

11.7 C

12.3 C

52 W/m

0.00 mm

07:05

12.3 C

1015.9 hpa

89 %

11.3 km/h aus 116

22.5 km/h aus W

10.5 C

11.2 C

11.2 C

12.3 C

38 W/m

0.00 mm

07:10

12.3 C

1015.9 hpa

89 %

3.2 km/h aus 117

14.5 km/h aus WSW

10.5 C

12.3 C

12.3 C

12.3 C

27 W/m

0.00 mm

07:15

12.3 C

1015.9 hpa

89 %

4.8 km/h aus 115

14.5 km/h aus W

10.5 C

12.3 C

12.3 C

12.3 C

29 W/m

0.00 mm

07:20

12.3 C

1015.9 hpa

89 %

1.6 km/h aus 114

9.7 km/h aus W

10.5 C

12.3 C

12.3 C

12.3 C

27 W/m

0.00 mm

07:25

12.3 C

1015.9 hpa

89 %

0.0 km/h aus 117

0.0 km/h aus ---

10.5 C

12.3 C

12.3 C

12.3 C

27 W/m

0.00 mm

07:30

12.3 C

1015.8 hpa

90 %

4.8 km/h aus 117

14.5 km/h aus W

10.7 C

12.4 C

12.3 C

12.4 C

30 W/m

0.00 mm

07:35

12.3 C

1015.8 hpa

90 %

0.0 km/h aus 117

0.0 km/h aus ---

10.7 C

12.4 C

12.3 C

12.4 C

35 W/m

0.25 mm

07:40

12.3 C

1015.8 hpa

90 %

0.0 km/h aus 116

6.4 km/h aus WSW

10.7 C

12.4 C

12.3 C

12.4 C

38 W/m

0.00 mm

07:45

12.3 C

1015.9 hpa

90 %

1.6 km/h aus 114

4.8 km/h aus SW

10.7 C

12.4 C

12.3 C

12.4 C

50 W/m

0.25 mm

07:50

12.3 C

1015.9 hpa

90 %

0.0 km/h aus 114

4.8 km/h aus WSW

10.7 C

12.4 C

12.3 C

12.4 C

55 W/m

0.00 mm

07:55

12.3 C

1015.9 hpa

90 %

0.0 km/h aus 118

4.8 km/h aus WSW

10.7 C

12.4 C

12.3 C

12.4 C

56 W/m

0.00 mm

08:00

12.3 C

1015.9 hpa

91 %

3.2 km/h aus 117

6.4 km/h aus SW

10.9 C

12.4 C

12.3 C

12.4 C

63 W/m

0.00 mm

08:05

12.4 C

1015.9 hpa

91 %

3.2 km/h aus 116

8.0 km/h aus SW

11.0 C

12.4 C

12.4 C

12.4 C

61 W/m

0.00 mm

08:10

12.4 C

1015.9 hpa

91 %

3.2 km/h aus 114

6.4 km/h aus SW

11.0 C

12.4 C

12.4 C

12.4 C

40 W/m

0.00 mm

08:15

12.4 C

1015.9 hpa

91 %

3.2 km/h aus 114

6.4 km/h aus SW

11.0 C

12.5 C

12.4 C

12.5 C

38 W/m

0.00 mm

08:20

12.4 C

1015.9 hpa

91 %

0.0 km/h aus 116

4.8 km/h aus SW

11.0 C

12.4 C

12.4 C

12.4 C

35 W/m

0.00 mm

08:25

12.3 C

1015.9 hpa

91 %

3.2 km/h aus 117

9.7 km/h aus WSW

10.9 C

12.4 C

12.3 C

12.4 C

27 W/m

0.25 mm

08:30

12.3 C

1015.9 hpa

91 %

4.8 km/h aus 116

11.3 km/h aus SW

10.9 C

12.4 C

12.3 C

12.4 C

32 W/m

0.00 mm

08:35

12.3 C

1015.9 hpa

92 %

1.6 km/h aus 115

6.4 km/h aus SW

11.1 C

12.4 C

12.3 C

12.4 C

52 W/m

0.00 mm

08:40

12.3 C

1015.9 hpa

92 %

0.0 km/h aus 115

1.6 km/h aus SW

11.1 C

12.4 C

12.3 C

12.4 C

77 W/m

0.00 mm

08:45

12.4 C

1015.9 hpa

92 %

1.6 km/h aus 115

6.4 km/h aus WSW

11.2 C

12.5 C

12.4 C

12.5 C

71 W/m

0.25 mm

08:50

12.5 C

1015.9 hpa

92 %

1.6 km/h aus 117

6.4 km/h aus WSW

11.2 C

12.6 C

12.5 C

12.6 C

66 W/m

0.00 mm

08:55

12.6 C

1015.9 hpa

93 %

0.0 km/h aus 117

4.8 km/h aus WSW

11.5 C

12.7 C

12.6 C

12.7 C

72 W/m

0.00 mm

09:00

12.6 C

1015.9 hpa

93 %

0.0 km/h aus 117

6.4 km/h aus WSW

11.5 C

12.7 C

12.6 C

12.7 C

104 W/m

0.00 mm

09:05

12.7 C

1015.9 hpa

93 %

0.0 km/h aus 114

4.8 km/h aus SW

11.6 C

12.8 C

12.7 C

12.8 C

100 W/m

0.00 mm

09:10

12.8 C

1015.9 hpa

93 %

3.2 km/h aus 116

14.5 km/h aus W

11.7 C

12.9 C

12.8 C

12.9 C

116 W/m

0.00 mm

09:15

12.8 C

1015.9 hpa

93 %

8.0 km/h aus 117

16.1 km/h aus W

11.7 C

12.4 C

12.3 C

12.9 C

102 W/m

0.00 mm

09:20

12.9 C

1015.9 hpa

93 %

8.0 km/h aus 117

16.1 km/h aus W

11.8 C

12.5 C

12.4 C

13.0 C

89 W/m

0.00 mm

09:25

12.9 C

1015.9 hpa

93 %

6.4 km/h aus 117

14.5 km/h aus WSW

11.8 C

12.8 C

12.7 C

13.0 C

107 W/m

0.00 mm

09:30

13.0 C

1015.9 hpa

93 %

4.8 km/h aus 114

9.7 km/h aus W

11.9 C

13.1 C

13.0 C

13.1 C

114 W/m

0.00 mm

09:35

13.1 C

1015.9 hpa

93 %

1.6 km/h aus 115

6.4 km/h aus W

11.9 C

13.2 C

13.1 C

13.2 C

121 W/m

0.00 mm

09:40

13.1 C

1015.9 hpa

93 %

4.8 km/h aus 117

12.9 km/h aus WSW

12.0 C

13.2 C

13.1 C

13.2 C

134 W/m

0.00 mm

09:45

13.2 C

1015.9 hpa

93 %

1.6 km/h aus 117

8.0 km/h aus W

12.1 C

13.3 C

13.2 C

13.3 C

164 W/m

0.00 mm

09:50

13.2 C

1015.9 hpa

93 %

1.6 km/h aus 117

4.8 km/h aus WSW

12.1 C

13.3 C

13.2 C

13.3 C

148 W/m

0.00 mm

09:55

13.3 C

1015.9 hpa

93 %

4.8 km/h aus 115

8.0 km/h aus WSW

12.2 C

13.4 C

13.3 C

13.4 C

159 W/m

0.00 mm

10:00

13.4 C

1015.9 hpa

93 %

3.2 km/h aus 115

8.0 km/h aus W

12.3 C

13.5 C

13.4 C

13.5 C

145 W/m

0.00 mm

10:05

13.4 C

1015.9 hpa

93 %

4.8 km/h aus 118

9.7 km/h aus WSW

12.3 C

13.6 C

13.4 C

13.6 C

136 W/m

0.00 mm

10:10

13.5 C

1015.9 hpa

93 %

6.4 km/h aus 117

9.7 km/h aus WSW

12.4 C

13.6 C

13.4 C

13.6 C

156 W/m

0.00 mm

10:15

13.5 C

1015.9 hpa

93 %

1.6 km/h aus 117

9.7 km/h aus W

12.4 C

13.6 C

13.5 C

13.6 C

141 W/m

0.00 mm

10:20

13.6 C

1015.9 hpa

93 %

4.8 km/h aus 116

11.3 km/h aus WSW

12.4 C

13.7 C

13.6 C

13.7 C

125 W/m

0.00 mm

10:25

13.6 C

1015.9 hpa

93 %

3.2 km/h aus 114

9.7 km/h aus WSW

12.5 C

13.7 C

13.6 C

13.7 C

128 W/m

0.00 mm

10:30

13.6 C

1015.9 hpa

92 %

3.2 km/h aus 117

9.7 km/h aus W

12.3 C

13.7 C

13.6 C

13.7 C

87 W/m

0.00 mm

10:35

13.6 C

1015.9 hpa

92 %

4.8 km/h aus 117

9.7 km/h aus W

12.3 C

13.6 C

13.6 C

13.6 C

87 W/m

0.00 mm

10:40

13.6 C

1015.9 hpa

92 %

4.8 km/h aus 117

9.7 km/h aus WNW

12.3 C

13.7 C

13.6 C

13.7 C

91 W/m

0.00 mm

10:45

13.6 C

1015.8 hpa

93 %

1.6 km/h aus 116

9.7 km/h aus WSW

12.5 C

13.7 C

13.6 C

13.7 C

96 W/m

0.00 mm

10:50

13.6 C

1015.8 hpa

93 %

3.2 km/h aus 114

8.0 km/h aus W

12.5 C

13.7 C

13.6 C

13.7 C

99 W/m

0.00 mm

10:55

13.7 C

1015.8 hpa

93 %

1.6 km/h aus 117

8.0 km/h aus W

12.6 C

13.8 C

13.7 C

13.8 C

107 W/m

0.00 mm

11:00

13.7 C

1015.9 hpa

93 %

0.0 km/h aus 116

0.0 km/h aus ---

12.6 C

13.8 C

13.7 C

13.8 C

109 W/m

0.00 mm

11:05

13.8 C

1015.9 hpa

93 %

4.8 km/h aus 116

8.0 km/h aus WSW

12.7 C

13.9 C

13.8 C

13.9 C

104 W/m

0.00 mm

11:10

13.8 C

1015.9 hpa

92 %

1.6 km/h aus 115

6.4 km/h aus WSW

12.5 C

13.8 C

13.8 C

13.8 C

96 W/m

0.00 mm

11:15

13.8 C

1015.8 hpa

93 %

1.6 km/h aus 113

6.4 km/h aus W

12.7 C

13.9 C

13.8 C

13.9 C

95 W/m

0.00 mm

11:20

13.8 C

1015.8 hpa

93 %

1.6 km/h aus 117

11.3 km/h aus NW

12.7 C

13.9 C

13.8 C

13.9 C

89 W/m

0.00 mm

11:25

13.9 C

1015.8 hpa

93 %

0.0 km/h aus 117

6.4 km/h aus WNW

12.8 C

14.0 C

13.9 C

14.0 C

91 W/m

0.00 mm

11:30

13.9 C

1015.8 hpa

93 %

4.8 km/h aus 117

12.9 km/h aus WNW

12.8 C

14.0 C

13.9 C

14.0 C

91 W/m

0.00 mm

11:35

13.9 C

1015.8 hpa

93 %

4.8 km/h aus 117

9.7 km/h aus WSW

12.8 C

14.1 C

13.9 C

14.1 C

87 W/m

0.00 mm

11:40

13.9 C

1015.8 hpa

93 %

4.8 km/h aus 114

11.3 km/h aus WNW

12.8 C

14.0 C

13.9 C

14.0 C

76 W/m

0.00 mm

11:45

13.8 C

1015.9 hpa

92 %

4.8 km/h aus 115

9.7 km/h aus WNW

12.6 C

13.9 C

13.8 C

13.9 C

74 W/m

0.00 mm

11:50

13.9 C

1015.9 hpa

93 %

4.8 km/h aus 117

9.7 km/h aus WNW

12.8 C

14.0 C

13.9 C

14.0 C

79 W/m

0.00 mm

11:55

13.8 C

1015.9 hpa

93 %

6.4 km/h aus 117

11.3 km/h aus WNW

12.7 C

13.9 C

13.8 C

13.9 C

90 W/m

0.00 mm

12:00

13.9 C

1015.9 hpa

93 %

4.8 km/h aus 117

9.7 km/h aus WSW

12.8 C

14.1 C

13.9 C

14.1 C

104 W/m

0.00 mm

12:05

14.0 C

1015.9 hpa

93 %

3.2 km/h aus 114

8.0 km/h aus WNW

12.9 C

14.1 C

14.0 C

14.1 C

123 W/m

0.00 mm

12:10

14.0 C

1015.9 hpa

93 %

4.8 km/h aus 116

9.7 km/h aus WNW

12.9 C

14.1 C

14.0 C

14.1 C

150 W/m

0.00 mm

12:15

14.2 C

1015.9 hpa

94 %

3.2 km/h aus 117

9.7 km/h aus WSW

13.2 C

14.3 C

14.2 C

14.3 C

186 W/m

0.00 mm

12:20

14.3 C

1015.9 hpa

93 %

4.8 km/h aus 117

12.9 km/h aus WNW

13.2 C

14.4 C

14.3 C

14.4 C

264 W/m

0.00 mm

12:25

14.4 C

1015.9 hpa

92 %

4.8 km/h aus 117

11.3 km/h aus W

13.1 C

14.5 C

14.4 C

14.5 C

225 W/m

0.00 mm

12:30

14.6 C

1015.7 hpa

92 %

1.6 km/h aus 114

8.0 km/h aus WNW

13.3 C

14.7 C

14.6 C

14.7 C

202 W/m

0.00 mm

12:35

14.6 C

1015.7 hpa

92 %

1.6 km/h aus 115

6.4 km/h aus W

13.3 C

14.7 C

14.6 C

14.7 C

197 W/m

0.00 mm

12:40

14.6 C

1015.7 hpa

91 %

3.2 km/h aus 117

9.7 km/h aus WSW

13.2 C

14.7 C

14.6 C

14.7 C

302 W/m

0.00 mm

12:45

14.8 C

1015.5 hpa

91 %

1.6 km/h aus 116

6.4 km/h aus WSW

13.4 C

14.9 C

14.8 C

14.9 C

354 W/m

0.00 mm

12:50

15.0 C

1015.5 hpa

91 %

3.2 km/h aus 117

8.0 km/h aus SW

13.5 C

15.1 C

15.0 C

15.1 C

441 W/m

0.00 mm

12:55

15.2 C

1015.5 hpa

89 %

3.2 km/h aus 114

6.4 km/h aus SSW

13.4 C

15.3 C

15.2 C

15.3 C

352 W/m

0.00 mm

13:00

15.4 C

1015.4 hpa

89 %

3.2 km/h aus 116

9.7 km/h aus SW

13.6 C

15.6 C

15.4 C

15.6 C

308 W/m

0.00 mm

13:05

15.3 C

1015.4 hpa

88 %

4.8 km/h aus 117

8.0 km/h aus SW

13.4 C

15.4 C

15.3 C

15.4 C

335 W/m

0.00 mm

13:10

15.9 C

1015.4 hpa

87 %

3.2 km/h aus 116

8.0 km/h aus SSW

13.7 C

16.0 C

15.9 C

16.0 C

613 W/m

0.00 mm

13:15

16.1 C

1015.4 hpa

86 %

4.8 km/h aus 118

11.3 km/h aus SSW

13.7 C

16.2 C

16.1 C

16.2 C

356 W/m

0.00 mm

13:20

16.1 C

1015.4 hpa

89 %

6.4 km/h aus 114

11.3 km/h aus SSW

14.2 C

16.3 C

16.1 C

16.3 C

391 W/m

0.00 mm

13:25

17.1 C

1015.4 hpa

81 %

6.4 km/h aus 117

14.5 km/h aus SSW

13.8 C

17.2 C

17.1 C

17.2 C

1101 W/m

0.00 mm

13:30

16.9 C

1015.3 hpa

83 %

6.4 km/h aus 117

11.3 km/h aus SSW

14.0 C

17.1 C

16.9 C

17.1 C

1070 W/m

0.00 mm

13:35

17.1 C

1015.3 hpa

81 %

3.2 km/h aus 116

9.7 km/h aus W

13.8 C

17.3 C

17.1 C

17.3 C

983 W/m

0.00 mm

13:40

17.3 C

1015.3 hpa

78 %

1.6 km/h aus 115

6.4 km/h aus SW

13.4 C

17.4 C

17.3 C

17.4 C

987 W/m

0.00 mm

13:45

16.9 C

1015.3 hpa

81 %

8.0 km/h aus 115

16.1 km/h aus S

13.7 C

17.1 C

16.9 C

17.1 C

349 W/m

0.00 mm

13:50

17.2 C

1015.3 hpa

82 %

4.8 km/h aus 117

16.1 km/h aus SSW

14.1 C

17.4 C

17.2 C

17.4 C

476 W/m

0.00 mm

13:55

17.6 C

1015.3 hpa

79 %

4.8 km/h aus 116

16.1 km/h aus SSW

13.9 C

17.7 C

17.6 C

17.7 C

677 W/m

0.00 mm

14:00

18.1 C

1015.1 hpa

79 %

6.4 km/h aus 116

14.5 km/h aus S

14.4 C

18.4 C

18.1 C

18.4 C

1028 W/m

0.00 mm

14:05

18.1 C

1015.1 hpa

79 %

9.7 km/h aus 115

19.3 km/h aus S

14.4 C

18.3 C

18.1 C

18.3 C

839 W/m

0.00 mm

14:10

18.6 C

1015.1 hpa

82 %

11.3 km/h aus 116

22.5 km/h aus S

15.4 C

19.0 C

18.6 C

19.0 C

989 W/m

0.00 mm

14:15

18.2 C

1014.9 hpa

75 %

6.4 km/h aus 117

16.1 km/h aus SW

13.7 C

18.4 C

18.2 C

18.4 C

920 W/m

0.00 mm

14:20

18.3 C

1014.9 hpa

75 %

6.4 km/h aus 118

17.7 km/h aus SW

13.8 C

18.4 C

18.3 C

18.4 C

958 W/m

0.00 mm

14:25

18.9 C

1014.9 hpa

77 %

4.8 km/h aus 116

9.7 km/h aus WSW

14.8 C

19.3 C

18.9 C

19.3 C

764 W/m

0.00 mm

14:30

18.9 C

1014.8 hpa

74 %

9.7 km/h aus 114

19.3 km/h aus S

14.2 C

19.2 C

18.9 C

19.2 C

557 W/m

0.00 mm

14:35

18.6 C

1014.8 hpa

78 %

11.3 km/h aus 116

22.5 km/h aus SSE

14.6 C

18.9 C

18.6 C

18.9 C

505 W/m

0.00 mm

14:40

18.9 C

1014.8 hpa

75 %

11.3 km/h aus 117

19.3 km/h aus S

14.4 C

19.2 C

18.9 C

19.2 C

996 W/m

0.00 mm

14:45

19.3 C

1014.6 hpa

74 %

9.7 km/h aus 117

19.3 km/h aus SSE

14.5 C

19.6 C

19.3 C

19.6 C

947 W/m

0.00 mm

14:50

19.5 C

1014.6 hpa

73 %

14.5 km/h aus 115

20.9 km/h aus S

14.5 C

19.1 C

18.8 C

19.8 C

755 W/m

0.00 mm

14:55

19.3 C

1014.6 hpa

73 %

6.4 km/h aus 116

16.1 km/h aus S

14.3 C

19.6 C

19.3 C

19.6 C

928 W/m

0.00 mm

15:00

18.7 C

1014.4 hpa

73 %

6.4 km/h aus 117

19.3 km/h aus SW

13.8 C

18.9 C

18.7 C

18.9 C

408 W/m

0.00 mm

15:05

18.4 C

1014.4 hpa

74 %

8.0 km/h aus 117

19.3 km/h aus SSW

13.7 C

18.6 C

18.4 C

18.6 C

408 W/m

0.00 mm

15:10

18.4 C

1014.4 hpa

76 %

9.7 km/h aus 115

24.1 km/h aus S

14.1 C

18.7 C

18.4 C

18.7 C

346 W/m

0.00 mm

15:15

18.3 C

1014.4 hpa

75 %

8.0 km/h aus 114

24.1 km/h aus S

13.8 C

18.4 C

18.3 C

18.4 C

300 W/m

0.00 mm

15:20

18.8 C

1014.4 hpa

73 %

12.9 km/h aus 116

22.5 km/h aus S

13.8 C

18.6 C

18.4 C

18.9 C

380 W/m

0.00 mm

15:25

18.9 C

1014.4 hpa

72 %

12.9 km/h aus 118

20.9 km/h aus SW

13.7 C

18.7 C

18.6 C

19.1 C

658 W/m

0.00 mm

15:30

18.4 C

1014.4 hpa

73 %

11.3 km/h aus 117

19.3 km/h aus SSW

13.5 C

18.6 C

18.4 C

18.6 C

321 W/m

0.00 mm

15:35

18.3 C

1014.4 hpa

74 %

12.9 km/h aus 114

19.3 km/h aus SSW

13.6 C

18.1 C

18.0 C

18.4 C

258 W/m

0.00 mm

15:40

18.1 C

1014.4 hpa

74 %

8.0 km/h aus 115

19.3 km/h aus SSW

13.4 C

18.2 C

18.1 C

18.2 C

190 W/m

0.00 mm

15:45

18.2 C

1014.3 hpa

75 %

8.0 km/h aus 117

17.7 km/h aus SSW

13.7 C

18.4 C

18.2 C

18.4 C

272 W/m

0.00 mm

15:50

18.9 C

1014.3 hpa

74 %

12.9 km/h aus 116

20.9 km/h aus NW

14.2 C

18.8 C

18.6 C

19.1 C

439 W/m

0.00 mm

15:55

18.6 C

1014.3 hpa

72 %

11.3 km/h aus 117

19.3 km/h aus WSW

13.5 C

18.7 C

18.6 C

18.7 C

388 W/m

0.00 mm

16:00

18.7 C

1014.2 hpa

71 %

8.0 km/h aus 114

17.7 km/h aus SW

13.3 C

18.8 C

18.7 C

18.8 C

638 W/m

0.00 mm

16:05

19.4 C

1014.2 hpa

71 %

4.8 km/h aus 117

16.1 km/h aus W

14.0 C

19.6 C

19.4 C

19.6 C

864 W/m

0.00 mm

16:10

19.1 C

1014.2 hpa

73 %

8.0 km/h aus 117

19.3 km/h aus WSW

14.2 C

19.4 C

19.1 C

19.4 C

295 W/m

0.00 mm

16:15

18.9 C

1013.9 hpa

72 %

6.4 km/h aus 117

16.1 km/h aus SW

13.7 C

19.1 C

18.9 C

19.1 C

454 W/m

0.00 mm

16:20

18.5 C

1013.9 hpa

72 %

11.3 km/h aus 115

19.3 km/h aus SW

13.4 C

18.6 C

18.5 C

18.6 C

205 W/m

0.00 mm

16:25

18.3 C

1013.9 hpa

72 %

11.3 km/h aus 115

20.9 km/h aus SSW

13.2 C

18.4 C

18.3 C

18.4 C

239 W/m

0.00 mm

16:30

18.6 C

1013.9 hpa

73 %

12.9 km/h aus 117

20.9 km/h aus SSW

13.7 C

18.4 C

18.3 C

18.8 C

376 W/m

0.00 mm

16:35

19.1 C

1013.9 hpa

71 %

8.0 km/h aus 117

19.3 km/h aus S

13.7 C

19.2 C

19.1 C

19.2 C

394 W/m

0.00 mm

16:40

19.1 C

1013.9 hpa

71 %

9.7 km/h aus 116

22.5 km/h aus SW

13.7 C

19.3 C

19.1 C

19.3 C

291 W/m

0.00 mm

16:45

18.8 C

1013.9 hpa

72 %

8.0 km/h aus 115

17.7 km/h aus WSW

13.6 C

18.9 C

18.8 C

18.9 C

257 W/m

0.00 mm

16:50

18.7 C

1013.9 hpa

72 %

6.4 km/h aus 116

16.1 km/h aus WSW

13.6 C

18.9 C

18.7 C

18.9 C

238 W/m

0.00 mm

16:55

18.7 C

1013.9 hpa

74 %

3.2 km/h aus 117

14.5 km/h aus S

13.9 C

18.9 C

18.7 C

18.9 C

228 W/m

0.00 mm

17:00

18.6 C

1013.9 hpa

71 %

9.7 km/h aus 115

20.9 km/h aus W

13.2 C

18.6 C

18.6 C

18.6 C

247 W/m

0.00 mm

17:05

18.7 C

1013.9 hpa

72 %

8.0 km/h aus 114

17.7 km/h aus WSW

13.5 C

18.8 C

18.7 C

18.8 C

190 W/m

0.00 mm

17:10

18.7 C

1013.9 hpa

72 %

4.8 km/h aus 114

16.1 km/h aus WSW

13.5 C

18.8 C

18.7 C

18.8 C

206 W/m

0.00 mm

17:15

18.7 C

1013.8 hpa

73 %

8.0 km/h aus 117

16.1 km/h aus WSW

13.7 C

18.8 C

18.7 C

18.8 C

165 W/m

0.00 mm

17:20

18.5 C

1013.8 hpa

72 %

8.0 km/h aus 117

17.7 km/h aus WSW

13.4 C

18.6 C

18.5 C

18.6 C

129 W/m

0.00 mm

17:25

18.4 C

1013.8 hpa

73 %

9.7 km/h aus 117

16.1 km/h aus SW

13.5 C

18.6 C

18.4 C

18.6 C

81 W/m

0.00 mm

17:30

18.5 C

1013.8 hpa

74 %

3.2 km/h aus 115

16.1 km/h aus W

13.8 C

18.7 C

18.5 C

18.7 C

99 W/m

0.00 mm

17:35

18.6 C

1013.8 hpa

74 %

6.4 km/h aus 116

19.3 km/h aus W

13.8 C

18.7 C

18.6 C

18.7 C

111 W/m

0.00 mm

17:40

18.6 C

1013.8 hpa

73 %

11.3 km/h aus 117

22.5 km/h aus WSW

13.7 C

18.8 C

18.6 C

18.8 C

189 W/m

0.00 mm

17:45

18.6 C

1013.8 hpa

72 %

6.4 km/h aus 117

16.1 km/h aus SW

13.4 C

18.7 C

18.6 C

18.7 C

208 W/m

0.00 mm

17:50

18.6 C

1013.8 hpa

71 %

9.7 km/h aus 116

17.7 km/h aus WSW

13.2 C

18.7 C

18.6 C

18.7 C

176 W/m

0.00 mm

17:55

18.5 C

1013.8 hpa

72 %

9.7 km/h aus 115

20.9 km/h aus SW

13.4 C

18.6 C

18.5 C

18.6 C

100 W/m

0.00 mm

18:00

18.3 C

1013.7 hpa

73 %

9.7 km/h aus 116

20.9 km/h aus W

13.4 C

18.4 C

18.3 C

18.4 C

75 W/m

0.00 mm

18:05

18.3 C

1013.7 hpa

73 %

3.2 km/h aus 117

17.7 km/h aus WSW

13.4 C

18.4 C

18.3 C

18.4 C

46 W/m

0.00 mm

18:10

18.3 C

1013.7 hpa

73 %

8.0 km/h aus 116

17.7 km/h aus SSW

13.4 C

18.4 C

18.3 C

18.4 C

43 W/m

0.00 mm

18:15

18.3 C

1013.4 hpa

76 %

3.2 km/h aus 115

11.3 km/h aus WSW

14.0 C

18.5 C

18.3 C

18.5 C

102 W/m

0.25 mm

18:20

18.0 C

1013.4 hpa

79 %

4.8 km/h aus 115

11.3 km/h aus SSW

14.3 C

18.3 C

18.0 C

18.3 C

205 W/m

0.00 mm

18:25

18.0 C

1013.4 hpa

77 %

3.2 km/h aus 117

9.7 km/h aus SSW

13.9 C

18.2 C

18.0 C

18.2 C

191 W/m

0.00 mm

18:30

17.9 C

1013.3 hpa

76 %

6.4 km/h aus 116

16.1 km/h aus SW

13.7 C

18.1 C

17.9 C

18.1 C

125 W/m

0.00 mm

18:35

17.9 C

1013.3 hpa

77 %

3.2 km/h aus 117

9.7 km/h aus SW

13.8 C

18.1 C

17.9 C

18.1 C

106 W/m

0.00 mm

18:40

17.9 C

1013.3 hpa

75 %

4.8 km/h aus 115

17.7 km/h aus SW

13.4 C

17.9 C

17.9 C

17.9 C

112 W/m

0.00 mm

18:45

18.0 C

1013.1 hpa

76 %

1.6 km/h aus 116

8.0 km/h aus WSW

13.7 C

18.2 C

18.0 C

18.2 C

91 W/m

0.00 mm

18:50

18.0 C

1013.1 hpa

75 %

4.8 km/h aus 117

11.3 km/h aus SSW

13.5 C

18.1 C

18.0 C

18.1 C

84 W/m

0.00 mm

18:55

18.1 C

1013.1 hpa

73 %

3.2 km/h aus 116

12.9 km/h aus WSW

13.1 C

18.1 C

18.1 C

18.1 C

83 W/m

0.00 mm

19:00

18.2 C

1013.0 hpa

75 %

1.6 km/h aus 116

8.0 km/h aus W

13.7 C

18.3 C

18.2 C

18.3 C

77 W/m

0.00 mm

19:05

18.2 C

1013.0 hpa

73 %

1.6 km/h aus 114

14.5 km/h aus WNW

13.2 C

18.2 C

18.2 C

18.2 C

73 W/m

0.00 mm

19:10

18.2 C

1013.0 hpa

73 %

3.2 km/h aus 116

11.3 km/h aus WNW

13.2 C

18.2 C

18.2 C

18.2 C

76 W/m

0.00 mm

19:15

18.2 C

1013.0 hpa

73 %

4.8 km/h aus 117

11.3 km/h aus W

13.2 C

18.2 C

18.2 C

18.2 C

67 W/m

0.00 mm

19:20

18.2 C

1013.0 hpa

73 %

3.2 km/h aus 117

11.3 km/h aus WNW

13.2 C

18.2 C

18.2 C

18.2 C

65 W/m

0.00 mm

19:25

18.2 C

1013.0 hpa

72 %

4.8 km/h aus 116

17.7 km/h aus WNW

13.0 C

18.2 C

18.2 C

18.2 C

64 W/m

0.00 mm

19:30

18.2 C

1013.0 hpa

73 %

3.2 km/h aus 113

14.5 km/h aus W

13.2 C

18.2 C

18.2 C

18.2 C

68 W/m

0.00 mm

19:35

18.1 C

1013.0 hpa

73 %

4.8 km/h aus 117

16.1 km/h aus W

13.2 C

18.2 C

18.1 C

18.2 C

66 W/m

0.00 mm

19:40

18.1 C

1013.0 hpa

73 %

6.4 km/h aus 118

14.5 km/h aus WNW

13.2 C

18.2 C

18.1 C

18.2 C

66 W/m

0.00 mm

19:45

18.1 C

1013.0 hpa

73 %

3.2 km/h aus 117

11.3 km/h aus W

13.1 C

18.1 C

18.1 C

18.1 C

68 W/m

0.00 mm

19:50

18.1 C

1013.0 hpa

73 %

4.8 km/h aus 115

11.3 km/h aus WSW

13.1 C

18.1 C

18.1 C

18.1 C

57 W/m

0.00 mm

19:55

18.1 C

1013.0 hpa

73 %

4.8 km/h aus 115

9.7 km/h aus W

13.1 C

18.1 C

18.1 C

18.1 C

57 W/m

0.00 mm

20:00

18.1 C

1012.9 hpa

73 %

3.2 km/h aus 117

9.7 km/h aus WSW

13.1 C

18.1 C

18.1 C

18.1 C

73 W/m

0.00 mm

20:05

18.1 C

1012.9 hpa

73 %

6.4 km/h aus 117

9.7 km/h aus W

13.1 C

18.1 C

18.1 C

18.1 C

84 W/m

0.00 mm

20:10

18.0 C

1012.9 hpa

72 %

4.8 km/h aus 117

14.5 km/h aus WSW

12.9 C

18.0 C

18.0 C

18.0 C

111 W/m

0.00 mm

20:15

18.1 C

1012.8 hpa

71 %

8.0 km/h aus 115

20.9 km/h aus WNW

12.7 C

18.1 C

18.1 C

18.1 C

106 W/m

0.00 mm

20:20

18.1 C

1012.8 hpa

71 %

8.0 km/h aus 116

17.7 km/h aus WNW

12.7 C

18.1 C

18.1 C

18.1 C

81 W/m

0.00 mm

20:25

18.0 C

1012.8 hpa

71 %

6.4 km/h aus 117

19.3 km/h aus WNW

12.7 C

17.9 C

18.0 C

17.9 C

60 W/m

0.00 mm

20:30

17.9 C

1012.8 hpa

70 %

6.4 km/h aus 116

20.9 km/h aus W

12.4 C

17.9 C

17.9 C

17.9 C

52 W/m

0.00 mm

20:35

17.8 C

1012.8 hpa

70 %

6.4 km/h aus 117

16.1 km/h aus W

12.3 C

17.7 C

17.8 C

17.7 C

41 W/m

0.00 mm

20:40

17.8 C

1012.8 hpa

71 %

4.8 km/h aus 114

19.3 km/h aus NW

12.4 C

17.7 C

17.8 C

17.7 C

56 W/m

0.00 mm

20:45

17.7 C

1012.8 hpa

72 %

6.4 km/h aus 117

16.1 km/h aus WNW

12.6 C

17.7 C

17.7 C

17.7 C

69 W/m

0.00 mm

20:50

17.7 C

1012.8 hpa

72 %

1.6 km/h aus 117

8.0 km/h aus NW

12.6 C

17.6 C

17.7 C

17.6 C

43 W/m

0.00 mm

20:55

17.7 C

1012.8 hpa

73 %

1.6 km/h aus 116

8.0 km/h aus NW

12.8 C

17.6 C

17.7 C

17.6 C

32 W/m

0.00 mm

21:00

17.6 C

1012.8 hpa

73 %

3.2 km/h aus 116

14.5 km/h aus NW

12.7 C

17.5 C

17.6 C

17.5 C

37 W/m

0.00 mm

21:05

17.5 C

1012.8 hpa

74 %

3.2 km/h aus 114

16.1 km/h aus WNW

12.8 C

17.5 C

17.5 C

17.5 C

41 W/m

0.00 mm

21:10

17.4 C

1012.8 hpa

74 %

0.0 km/h aus 117

0.0 km/h aus ---

12.8 C

17.4 C

17.4 C

17.4 C

37 W/m

0.00 mm

21:15

17.3 C

1012.8 hpa

75 %

0.0 km/h aus 117

6.4 km/h aus NW

12.9 C

17.3 C

17.3 C

17.3 C

28 W/m

0.00 mm

21:20

17.3 C

1012.8 hpa

75 %

1.6 km/h aus 117

8.0 km/h aus NW

12.8 C

17.2 C

17.3 C

17.2 C

25 W/m

0.00 mm

21:25

17.2 C

1012.8 hpa

75 %

1.6 km/h aus 116

8.0 km/h aus WNW

12.7 C

17.2 C

17.2 C

17.2 C

16 W/m

0.00 mm

21:30

17.1 C

1012.8 hpa

75 %

0.0 km/h aus 115

0.0 km/h aus ---

12.6 C

17.1 C

17.1 C

17.1 C

11 W/m

0.00 mm

21:35

17.1 C

1012.8 hpa

75 %

0.0 km/h aus 117

0.0 km/h aus ---

12.6 C

17.0 C

17.1 C

17.0 C

8 W/m

0.00 mm

21:40

16.9 C

1012.8 hpa

75 %

0.0 km/h aus 117

0.0 km/h aus ---

12.5 C

16.9 C

16.9 C

16.9 C

6 W/m

0.00 mm

21:45

16.8 C

1012.8 hpa

76 %

0.0 km/h aus 118

1.6 km/h aus NW

12.6 C

16.8 C

16.8 C

16.8 C

3 W/m

0.00 mm

21:50

16.7 C

1012.8 hpa

76 %

0.0 km/h aus 115

0.0 km/h aus ---

12.4 C

16.6 C

16.7 C

16.6 C

0 W/m

0.00 mm

21:55

16.6 C

1012.8 hpa

76 %

0.0 km/h aus 115

0.0 km/h aus ---

12.3 C

16.5 C

16.6 C

16.5 C

0 W/m

0.00 mm

22:00

16.4 C

1012.9 hpa

76 %

0.0 km/h aus 116

0.0 km/h aus ---

12.1 C

16.3 C

16.4 C

16.3 C

0 W/m

0.00 mm

22:05

16.2 C

1012.9 hpa

76 %

0.0 km/h aus 117

0.0 km/h aus ---

12.0 C

16.1 C

16.2 C

16.1 C

0 W/m

0.00 mm

22:10

16.1 C

1012.9 hpa

77 %

0.0 km/h aus 117

3.2 km/h aus NW

12.0 C

15.9 C

16.1 C

15.9 C

0 W/m

0.00 mm

22:15

15.9 C

1012.9 hpa

77 %

0.0 km/h aus 115

0.0 km/h aus ---

11.9 C

15.8 C

15.9 C

15.8 C

0 W/m

0.00 mm

22:20

15.7 C

1012.9 hpa

77 %

0.0 km/h aus 115

0.0 km/h aus ---

11.7 C

15.6 C

15.7 C

15.6 C

0 W/m

0.00 mm

22:25

15.6 C

1012.9 hpa

78 %

0.0 km/h aus 116

0.0 km/h aus ---

11.7 C

15.4 C

15.6 C

15.4 C

0 W/m

0.00 mm

22:30

15.4 C

1012.8 hpa

79 %

0.0 km/h aus 117

0.0 km/h aus ---

11.8 C

15.3 C

15.4 C

15.3 C

0 W/m

0.00 mm

22:35

15.2 C

1012.8 hpa

79 %

0.0 km/h aus 117

0.0 km/h aus ---

11.6 C

15.1 C

15.2 C

15.1 C

0 W/m

0.00 mm

22:40

15.1 C

1012.8 hpa

80 %

0.0 km/h aus 115

4.8 km/h aus NW

11.7 C

15.0 C

15.1 C

15.0 C

0 W/m

0.00 mm

22:45

15.0 C

1012.8 hpa

80 %

1.6 km/h aus 115

11.3 km/h aus WNW

11.6 C

14.9 C

15.0 C

14.9 C

0 W/m

0.00 mm

22:50

14.8 C

1012.8 hpa

81 %

3.2 km/h aus 117

9.7 km/h aus WNW

11.6 C

14.7 C

14.8 C

14.7 C

0 W/m

0.00 mm

22:55

14.7 C

1012.8 hpa

82 %

1.6 km/h aus 116

6.4 km/h aus W

11.7 C

14.7 C

14.7 C

14.7 C

0 W/m

0.00 mm

23:00

14.7 C

1012.9 hpa

82 %

0.0 km/h aus 116

6.4 km/h aus WNW

11.6 C

14.6 C

14.7 C

14.6 C

0 W/m

0.00 mm

23:05

14.6 C

1012.9 hpa

82 %

1.6 km/h aus 115

6.4 km/h aus WNW

11.5 C

14.4 C

14.6 C

14.4 C

0 W/m

0.00 mm

23:10

14.4 C

1012.9 hpa

80 %

4.8 km/h aus 115

11.3 km/h aus WNW

11.0 C

14.3 C

14.4 C

14.3 C

0 W/m

0.00 mm

23:15

14.3 C

1012.9 hpa

79 %

3.2 km/h aus 116

9.7 km/h aus WNW

10.7 C

14.1 C

14.3 C

14.1 C

0 W/m

0.00 mm

23:20

14.2 C

1012.9 hpa

78 %

3.2 km/h aus 117

9.7 km/h aus WNW

10.4 C

14.0 C

14.2 C

14.0 C

0 W/m

0.00 mm

23:25

14.1 C

1012.9 hpa

78 %

0.0 km/h aus 117

4.8 km/h aus WNW

10.3 C

13.8 C

14.1 C

13.8 C

0 W/m

0.00 mm

23:30

13.9 C

1012.9 hpa

77 %

0.0 km/h aus 116

0.0 km/h aus ---

10.0 C

13.7 C

13.9 C

13.7 C

0 W/m

0.00 mm

23:35

13.8 C

1012.9 hpa

77 %

1.6 km/h aus 115

8.0 km/h aus WNW

9.9 C

13.6 C

13.8 C

13.6 C

0 W/m

0.00 mm

23:40

13.7 C

1012.9 hpa

75 %

0.0 km/h aus 115

4.8 km/h aus WNW

9.4 C

13.4 C

13.7 C

13.4 C

0 W/m

0.00 mm

23:45

13.6 C

1012.9 hpa

75 %

0.0 km/h aus 117

6.4 km/h aus WNW

9.2 C

13.2 C

13.6 C

13.2 C

0 W/m

0.00 mm

23:50

13.4 C

1012.9 hpa

74 %

0.0 km/h aus 117

3.2 km/h aus W

8.9 C

13.1 C

13.4 C

13.1 C

0 W/m

0.00 mm

23:55

13.3 C

1012.9 hpa

74 %

1.6 km/h aus 117

8.0 km/h aus WNW

8.7 C

12.9 C

13.3 C

12.9 C

0 W/m

0.00 mm